This demonstration page uses our WeatherBlox Daily Observations layout. Learn more.

Left ArrowRight Arrow

Hourly Observations for September 22, 2019

Temp ( °F °C ) Dew Point ( °F °C ) Humidity (%) Winds ( mph kmh ) Pressure ( in mb ) Visibility ( mi km ) Precip ( " mm )
12:15 am 00:15 Cloudy 64 17.5 46 7.5 52 52 N 10 17 29.85 1011 10 16 0.00 0.00
12:35 am 00:35 Cloudy 59 15.2 49 9.7 70 70 NNE 9 15 29.90 1013 7 11 0.04 1.02
12:55 am 00:55 Cloudy with Nearby Thunderstorms 58 14.5 50 10.2 76 76 E 10 17 29.90 1013 10 16 0.05 1.27
1:15 am 01:15 Cloudy with Light Rain 58 14.5 51 10.6 78 78 W 9 15 30.01 1016 10 16 0.00 0.00
1:35 am 01:35 Cloudy with Rain 57 14.1 51 10.7 80 80 N 5 7 29.99 1016 5 8 0.05 1.27
1:55 am 01:55 Cloudy 57 14.1 52 11.1 82 82 N 13 20 29.96 1015 10 16 0.05 1.27
2:15 am 02:15 Mostly Cloudy 57 13.7 52 11.1 84 84 N 10 17 29.96 1014 10 16 0.00 0.00
2:35 am 02:35 Mostly Cloudy 56 13.5 52 10.9 84 84 N 16 26 29.96 1015 10 16 0.00 0.00
2:55 am 02:55 Cloudy with Light Rain 56 13.6 52 11 84 84 N 18 30 30.00 1016 10 16 0.00 0.00
3:15 am 03:15 Cloudy with Light Rain 55 12.8 52 11.1 90 90 N 16 26 29.98 1015 7 11 0.02 0.51
3:35 am 03:35 Cloudy with Rain 54 12.4 52 11 91 91 N 14 22 30.00 1016 10 16 0.03 0.76
3:55 am 03:55 Cloudy with Rain 54 12.2 52 11 92 92 N 15 24 29.97 1015 7 11 0.10 2.54
4:15 am 04:15 Cloudy with Rain 54 12 52 11 94 94 N 12 19 29.98 1015 10 16 0.02 0.51
4:35 am 04:35 Cloudy with Light Rain 54 12 51 10.7 92 92 N 12 19 29.99 1016 10 16 0.03 0.76
4:55 am 04:55 Cloudy 53 11.6 51 10.5 93 93 N 14 22 30.01 1016 10 16 0.03 0.76
5:15 am 05:15 Cloudy 53 11.7 50 10.1 90 90 N 12 19 29.99 1015 10 16 0.00 0.00
5:35 am 05:35 Cloudy 53 11.8 50 10 89 89 N 10 17 29.98 1015 10 16 0.00 0.00
5:55 am 05:55 Cloudy 54 12 50 10 88 88 N 13 20 29.98 1015 10 16 0.00 0.00
6:15 am 06:15 Cloudy 54 12 50 10.2 89 89 N 9 15 29.98 1015 10 16 0.00 0.00
6:35 am 06:35 Cloudy 54 12 51 10.3 89 89 NNE 6 9 29.97 1015 10 16 0.00 0.00
6:55 am 06:55 Cloudy 54 12.1 51 10.3 89 89 NNE 7 11 29.96 1015 10 16 0.00 0.00
7:15 am 07:15 Cloudy 54 12 51 10.3 89 89 E 9 15 29.93 1014 10 16 0.00 0.00
7:35 am 07:35 Cloudy with Light Rain 54 12.1 50 10.2 88 88 ENE 3 6 29.94 1014 10 16 0.00 0.00
7:55 am 07:55 Partly Cloudy 52 11.3 51 10.4 94 94 Calm 29.96 1015 10 16 0.00 0.00
8:15 am 08:15 Sunny 54 12 51 10.5 91 91 Calm 29.94 1014 10 16 0.00 0.00
8:35 am 08:35 Sunny 53 11.8 51 10.8 94 94 NW 15 24 29.97 1015 10 16 0.00 0.00
8:55 am 08:55 Sunny 54 12.4 51 10.7 89 89 NNW 10 17 29.99 1016 10 16 0.00 0.00
9:15 am 09:15 Sunny 56 13.3 51 10.8 85 85 NNW 7 11 29.99 1016 10 16 0.00 0.00
9:35 am 09:35 Sunny 57 13.8 51 10.7 82 82 NNW 6 9 30.00 1016 10 16 0.00 0.00
9:55 am 09:55 Sunny 58 14.5 52 10.9 79 79 Calm 29.99 1016 10 16 0.00 0.00
10:15 am 10:15 Sunny 59 15.1 52 11.3 78 78 NNW 6 9 29.98 1015 10 16 0.00 0.00
10:35 am 10:35 Sunny 60 15.7 52 11.3 75 75 N 7 11 29.99 1016 10 16 0.00 0.00
10:55 am 10:55 Sunny 62 16.5 53 11.6 73 73 NW 8 13 29.98 1015 10 16 0.00 0.00
11:15 am 11:15 Sunny 63 17.3 53 11.4 68 68 NW 8 13 29.98 1015 10 16 0.00 0.00
11:35 am 11:35 Partly Cloudy 64 17.5 54 12.1 71 71 WNW 9 15 29.98 1015 10 16 0.00 0.00
11:55 am 11:55 Partly Cloudy 64 17.6 53 11.7 69 69 NW 8 13 29.98 1015 10 16 0.00 0.00
12:15 pm 12:15 Mostly Cloudy 64 18 53 11.9 68 68 NW 10 17 29.97 1015 10 16 0.00 0.00
12:35 pm 12:35 Partly Cloudy 65 18.3 53 11.5 65 65 NNW 9 15 29.97 1015 10 16 0.00 0.00
12:55 pm 12:55 Partly Cloudy 66 18.8 53 11.8 64 64 WNW 8 13 29.95 1014 10 16 0.00 0.00
1:15 pm 13:15 Sunny 66 19 52 10.9 60 60 WNW 9 15 29.94 1014 10 16 0.00 0.00
1:35 pm 13:35 Sunny 67 19.2 53 11.6 62 62 WNW 8 13 29.94 1014 10 16 0.00 0.00
1:55 pm 13:55 Sunny 68 19.8 53 11.9 61 61 WNW 6 9 29.93 1014 10 16 0.00 0.00
2:15 pm 14:15 Partly Cloudy 68 20.1 54 12 60 60 W 6 9 29.92 1013 10 16 0.00 0.00
2:35 pm 14:35 Partly Cloudy 69 20.6 53 11.7 57 57 W 13 20 29.92 1013 10 16 0.00 0.00
2:55 pm 14:55 Sunny 69 20.4 53 11.6 57 57 WNW 12 19 29.91 1013 10 16 0.00 0.00
3:15 pm 15:15 Partly Cloudy 70 21.3 53 11.7 54 54 W 8 13 29.89 1012 10 16 0.00 0.00
3:35 pm 15:35 Partly Cloudy 71 21.7 54 12.1 55 55 W 7 11 29.89 1012 10 16 0.00 0.00
3:55 pm 15:55 Sunny 71 21.7 53 11.9 54 54 W 10 17 29.89 1012 10 16 0.00 0.00
4:15 pm 16:15 Partly Cloudy 70 21.2 52 11.1 53 53 Calm 29.88 1012 10 16 0.00 0.00
4:35 pm 16:35 Mostly Cloudy 72 22 52 10.9 49 49 SW 5 7 29.88 1012 10 16 0.00 0.00
4:55 pm 16:55 Cloudy 71 21.6 52 11.1 51 51 W 6 9 29.88 1012 10 16 0.00 0.00
5:15 pm 17:15 Mostly Cloudy 72 22 52 11 50 50 NNE 7 11 29.87 1011 10 16 0.00 0.00
5:35 pm 17:35 Mostly Cloudy 70 21.1 54 12.4 58 58 NNE 7 11 29.87 1012 10 16 0.00 0.00
5:55 pm 17:55 Mostly Cloudy 70 21.1 54 12.2 57 57 ENE 3 6 29.88 1012 10 16 0.00 0.00
6:15 pm 18:15 Partly Cloudy 71 21.5 54 12 55 55 Calm 29.88 1012 10 16 0.00 0.00
6:35 pm 18:35 Sunny 71 21.6 53 11.9 54 54 Calm 29.88 1012 10 16 0.00 0.00
6:55 pm 18:55 Partly Cloudy 72 22 54 12 53 53 SSE 3 6 29.89 1012 7 11 0.00 0.00
7:15 pm 19:15 Hazy 70 21.1 55 12.5 58 58 SSE 5 7 29.89 1012 4 6 0.00 0.00
7:35 pm 19:35 Sunny 67 19.5 56 13.1 67 67 SSE 3 6 29.91 1013 10 16 0.00 0.00
7:55 pm 19:55 Clear 66 18.7 55 13 70 70 S 3 6 29.91 1013 10 16 0.00 0.00
8:15 pm 20:15 Clear 63 17.3 56 13.2 77 77 S 6 9 29.94 1014 10 16 0.00 0.00
8:35 pm 20:35 Clear 62 16.5 55 12.9 79 79 Calm 29.95 1014 10 16 0.00 0.00
8:55 pm 20:55 Clear 62 16.4 55 12.5 78 78 Calm 29.96 1015 10 16 0.00 0.00
9:15 pm 21:15 Clear 60 15.5 54 12 80 80 SSE 5 7 29.97 1015 10 16 0.00 0.00
9:35 pm 21:35 Clear 59 14.8 53 11.8 82 82 S 6 9 29.99 1015 10 16 0.00 0.00
9:55 pm 21:55 Clear 59 14.8 53 11.6 81 81 S 3 6 29.99 1015 10 16 0.00 0.00
10:15 pm 22:15 Clear 59 15.1 53 11.7 80 80 Calm 29.99 1016 10 16 0.00 0.00
10:35 pm 22:35 Clear 55 12.9 53 11.4 91 91 Calm 30.01 1016 10 16 0.00 0.00
10:55 pm 22:55 Clear 54 12.2 52 11.1 93 93 NE 3 6 30.03 1017 10 16 0.00 0.00
11:15 pm 23:15 Clear 53 11.7 52 10.9 95 95 E 3 6 30.04 1017 10 16 0.00 0.00
11:35 pm 23:35 Clear 53 11.6 52 11 96 96 Calm 30.04 1017 10 16 0.00 0.00
11:55 pm 23:55 Clear 53 11.6 52 10.9 96 96 Calm 30.04 1017 10 16 0.00 0.00

Powered by AerisWeather